FENGYUN 1C DEB, 30272

Orbit data source: Space-Track

FENGYUN 1C DEB, 30272 is space debris in SSO originally from a launch on Mon, 10 May 1999 UTC launched from the Taiyaun Space Center, China (TSC). Fengyun 1C debris stems from the Chinese weather satellite Fengyun-1C, which was intentionally destroyed by a Chinese anti-satellite missile in 2007. This event dramatically increased the amount of space debris, with thousands of trackable fragments posing hazards to satellites and human spaceflight. The Fengyun 1C debris cloud has become a focal point in discussions about space sustainability and the need for international regulations to prevent the creation of new debris.

Loading next visibility...
Identifier
30272, 1999-025YH
Orbit
SSO
Country
Flag of CNCN / PRC
Related business
Manufacturer
Unknown
Mission
Spacecraft
Bus & Motor
Unknown
Mass
Unknown
Launch date (UTC)
1999-05-10 (27 years ago)
Launch vehicle
Unknown
Launch site
Taiyaun Space Center, China (TSC)
Object type
Payload
Rocket body
Debris
Shape & HBR
Unknown shape, 0.1 m
Radar Cross Section
Small (<0.1 m²)

Expand to show TLE details & history
Last TLE update: 11 hours ago

TLE from 11 hours ago
0 FENGYUN 1C DEB
1 30272U 99025YH  26123.92708016  .00002299  00000-0  11858-2 0  9993
2 30272  98.8865 196.1700 0051375  62.0238 298.6121 14.15406973988673
Epoch: 2026-05-03T22:14Z
TLE epoch observation values (Epoch: 2026-05-03T22:14:59.725Z)
Latitude
-0.00006°
Longitude
0.59754°
Altitude
826.214 km
Speed
7.449 km/s
True Right ascension
13h 04m 40s
True Declination
0° 00' 00"
Sunlit
Object was in full shadow at epoch
Visualization orbit readout
Latitude
Unknown
Longitude
Unknown
Altitude
Unknown
Speed
Unknown
Apparent Right ascension
Unknown
Apparent Declination
Unknown
Sunlit
N/A
Visualization observer readout
Local Sidereal Time
17:30:16
Azimuth
Unknown
Elevation
Unknown
Doppler factor
Unknown
Orbital elements
Apogee altitude
875.175 km
Perigee altitude
801.028 km
Semi-major axis
7,216.238 km
Eccentricity
0.00514
Inclination
98.8865°
RAAN
196.17°
Arg. of periapsis
62.0238°
True anomaly
298.09369°
Mean anomaly
298.6121°
Eccentric anomaly
298.35305°
Mean motion
3.5406 °/min
Orbital period
101.68 mins
BSTAR
0.0011858
Loading maneuver chart data...
Computing Atmospheric mass density...

Documentation

Showing up to 5 results
|